Location: Breitenfeld
(46.8500°N, 15.6333°E)
Time: 23:51:55
(UTC+00:00)

Transit 4B - Pass Details

Date: 03 June 2022
Orbit: 948 x 1097 km, 32.4° (Epoch: 03 July)

Event Time Altitude Azimuth Distance (km) Brightness Sun altitude
Exits shadow 01:43:18 14° 228° (SW) 2,505 10.0 -11.2°
Maximum altitude 01:47:00 22° 189° (S) 2,042 9.7 -10.8°
Drops below altitude 10° 01:51:47 10° 142° (SE) 2,718 10.7 -10.3°
Sets 01:55:01 0° 127° (SE) 3,643 11.6 -9.9°
